Weather History for EBFS - February, 2013

Change the Weather History Date:

Saturday, February 23, 2013

  Actual Average Record
Temperature  
Mean Temperature 24 °F -  
Max Temperature 27 °F 45 °F 51 °F (2007)
Min Temperature 21 °F 36 °F 21 °F (2013)
Degree Days  
Heating Degree Days 41    
Moisture  
Dew Point 20 °F    
Average Humidity 85    
Maximum Humidity 93    
Minimum Humidity 70    
Precipitation  
Precipitation 0.04 in - - ()
Sea Level Pressure  
Sea Level Pressure 29.93 in    
Wind  
Wind Speed 12 mph ()    
Max Wind Speed 18 mph    
Max Gust Speed -    
Visibility 2.4 miles    
Events Snow    
Averages and records for this station are not official NWS values.
T = Trace of Precipitation, MM = Missing Value Source: Averaged Metar Reports

Daily Weather History Graph

Daily Weather History Graph

Search for Another Location

Airport or City:

Trip Planner

Search our weather history database for the weather conditions in past years. The results will help you decide how hot, cold, wet, or windy it might be!

Date:

Astronomy

Feb. 23, 2013 Rise Set
Actual Time 7:37 AM CET 6:13 PM CET
Civil Twilight 7:04 AM CET 6:46 PM CET
Nautical Twilight 6:26 AM CET 7:23 PM CET
Astronomical Twilight 5:48 AM CET 8:01 PM CET
Moon 4:00 PM CET (2/23) 5:59 AM CET (2/23)
Length of Visible Light 11h 42m
Length of Day
10h 36m
Waxing Gibbous, 94% of the Moon is Illuminated
Feb 23
Waxing Gibbous
Feb 25
Full
Mar 4
Last Quarter
Mar 11
New
Mar 19
First Quarter

Hourly Weather History & Observations

Time (CET) Temp. Windchill Dew Point Humidity Pressure Visibility Wind Dir Wind Speed Gust Speed Precip Events Conditions
12:25 AM 21.2 °F 10.1 °F 17.6 °F 86% 29.92 in 6.2 mi NE 10.4 mph - N/A   Partly Cloudy
12:55 AM 21.2 °F 9.5 °F 15.8 °F 80% 29.92 in 6.2 mi NE 11.5 mph - N/A   Partly Cloudy
1:00 AM 22 °F - 16 °F 70% 30.00 in 6 mi NE 11.2 mph - -   Scattered Clouds
1:25 AM 21.2 °F 9.5 °F 15.8 °F 80% 29.92 in 5.6 mi NE 11.5 mph - N/A   Partly Cloudy
1:55 AM 23.0 °F 11.7 °F 21.2 °F 93% 29.92 in 6.2 mi NE 11.5 mph - N/A   Scattered Clouds
2:19 AM 23.0 °F 11.7 °F 17.6 °F 80% 29.92 in 4.3 mi NE 11.5 mph - N/A   Mostly Cloudy
2:25 AM 23.0 °F 11.7 °F 17.6 °F 80% 29.92 in 4.3 mi NE 11.5 mph - N/A   Mostly Cloudy
3:10 AM 23.0 °F 11.1 °F 17.6 °F 80% 29.92 in - NE 12.7 mph - N/A Snow Light Snow
3:25 AM 23.0 °F 11.1 °F 17.6 °F 80% 29.92 in - NE 12.7 mph - N/A Snow Light Snow
4:00 AM 22 °F - 18 °F 80% 29.99 in 3 mi NE 13.4 mph - - Snow Light Snow
4:25 AM 21.2 °F 9.5 °F 17.6 °F 86% 29.89 in - NNE 11.5 mph - N/A Snow Light Snow
4:55 AM 23.0 °F 11.7 °F 19.4 °F 86% 29.89 in - NNE 11.5 mph - N/A Snow Light Snow
5:17 AM 23.0 °F 11.7 °F 19.4 °F 86% 29.89 in - NNE 11.5 mph - N/A Snow Light Snow
5:25 AM 23.0 °F 11.1 °F 19.4 °F 86% 29.89 in - NNE 12.7 mph - N/A Snow Light Snow
5:55 AM 23.0 °F 11.7 °F 19.4 °F 86% 29.89 in - NE 11.5 mph - N/A Snow Light Snow
6:25 AM 23.0 °F 11.1 °F 19.4 °F 86% 29.89 in - NNE 12.7 mph - N/A Snow Light Snow
6:50 AM 23.0 °F 10.1 °F 19.4 °F 86% 29.89 in - NE 15.0 mph - N/A Snow Light Snow
6:55 AM 23.0 °F 10.1 °F 19.4 °F 86% 29.89 in - NNE 15.0 mph - N/A Snow Light Snow
7:00 AM 23 °F - 19 °F 77% 29.97 in 2 mi NNE 13.4 mph - - Snow Light Snow
7:25 AM 21.2 °F 7.3 °F 17.6 °F 86% 29.89 in 2.2 mi NNE 16.1 mph - N/A   Mostly Cloudy
7:55 AM 21.2 °F 7.8 °F 17.6 °F 86% 29.89 in 1.6 mi NE 15.0 mph - N/A   Mostly Cloudy
8:25 AM 21.2 °F 7.3 °F 19.4 °F 93% 29.92 in 1.6 mi NNE 16.1 mph - N/A   Mostly Cloudy
8:55 AM 21.2 °F 7.8 °F 19.4 °F 93% 29.92 in 1.6 mi NE 15.0 mph - N/A   Mostly Cloudy
9:25 AM 21.2 °F 8.3 °F 19.4 °F 93% 29.92 in 1.4 mi NE 13.8 mph - N/A   Mostly Cloudy
9:55 AM 21.2 °F 7.3 °F 17.6 °F 86% 29.92 in 1.7 mi NE 16.1 mph - N/A   Mostly Cloudy
10:00 AM 22 °F - 18 °F 79% 30.00 in 2 mi NE 17.9 mph - -   Mist
10:25 AM 23.0 °F 11.1 °F 19.4 °F 86% 29.92 in 1.7 mi NE 12.7 mph - N/A   Mostly Cloudy
10:55 AM 23.0 °F 10.6 °F 19.4 °F 86% 29.92 in 1.7 mi NNE 13.8 mph - N/A   Mostly Cloudy
11:25 AM 24.8 °F 12.9 °F 19.4 °F 80% 29.92 in 1.9 mi NE 13.8 mph - N/A   Mostly Cloudy
11:33 AM 24.8 °F 12.4 °F 19.4 °F 80% 29.92 in 1.9 mi NNE 15.0 mph - N/A Snow Light Snow
11:55 AM 24.8 °F 11.9 °F 19.4 °F 80% 29.92 in 1.6 mi NNE 16.1 mph - N/A Snow Light Snow
12:25 PM 24.8 °F 11.9 °F 19.4 °F 80% 29.92 in 1.8 mi NE 16.1 mph - N/A Snow Light Snow
12:55 PM 24.8 °F 12.4 °F 19.4 °F 80% 29.92 in 1.9 mi NE 15.0 mph - N/A Snow Light Snow
1:00 PM 24 °F - 19 °F 73% 30.00 in 2 mi NE 15.7 mph - - Snow Light Snow
1:24 PM 24.8 °F 11.9 °F 19.4 °F 80% 29.92 in - NE 16.1 mph - N/A   Mostly Cloudy
1:25 PM 24.8 °F 11.9 °F 19.4 °F 80% 29.92 in 2.5 mi NE 16.1 mph - N/A   Mostly Cloudy
1:55 PM 24.8 °F 13.4 °F 19.4 °F 80% 29.92 in 2.8 mi NE 12.7 mph - N/A   Mostly Cloudy
1:57 PM 24.8 °F 12.9 °F 19.4 °F 80% 29.92 in 2.8 mi NE 13.8 mph - N/A   Mostly Cloudy
2:01 PM 24.8 °F 12.9 °F 19.4 °F 80% 29.92 in - NNE 13.8 mph - N/A Snow Light Snow
2:25 PM 24.8 °F 11.9 °F 19.4 °F 80% 29.92 in - NE 16.1 mph - N/A Snow Light Snow
2:54 PM 24.8 °F 12.9 °F 19.4 °F 80% 29.92 in - NNE 13.8 mph - N/A Snow Light Snow
2:55 PM 24.8 °F 12.9 °F 19.4 °F 80% 29.92 in 1.6 mi NNE 13.8 mph - N/A Snow Light Snow
3:03 PM 24.8 °F 13.4 °F 21.2 °F 86% 29.92 in 0.9 mi NNE 12.7 mph - N/A Snow Snow
3:25 PM 24.8 °F 12.9 °F 21.2 °F 86% 29.92 in 0.9 mi NE 13.8 mph - N/A Snow Snow
3:31 PM 24.8 °F 13.4 °F 21.2 °F 86% 29.92 in 1.0 mi NE 12.7 mph - N/A Snow Light Snow
3:55 PM 24.8 °F 13.4 °F 21.2 °F 86% 29.92 in 1.2 mi NNE 12.7 mph - N/A Snow Light Snow
4:00 PM 25 °F - 22 °F 82% 30.00 in 1 mi NNE 11.2 mph - - Snow Light Snow
4:25 PM 24.8 °F 13.4 °F 23.0 °F 93% 29.92 in 1.7 mi NE 12.7 mph - N/A Snow Light Snow
4:55 PM 24.8 °F 14.0 °F 21.2 °F 86% 29.92 in 1.2 mi NE 11.5 mph - N/A Snow Light Snow
5:25 PM 24.8 °F 13.4 °F 21.2 °F 86% 29.92 in 1.5 mi NE 12.7 mph - N/A Snow Light Snow
5:55 PM 24.8 °F 14.0 °F 23.0 °F 93% 29.92 in 1.2 mi NNE 11.5 mph - N/A Snow Light Snow
6:25 PM 24.8 °F 14.0 °F 23.0 °F 93% 29.92 in 1.1 mi NNE 11.5 mph - N/A Snow Light Snow
6:55 PM 26.6 °F 16.2 °F 23.0 °F 86% 29.95 in 2.2 mi NNE 11.5 mph - N/A Snow Light Snow
7:00 PM 26 °F - 22 °F 81% 30.01 in 2 mi NNE 13.4 mph - - Snow Light Snow
7:25 PM 26.6 °F 15.7 °F 23.0 °F 86% 29.95 in - NNE 12.7 mph - N/A Snow Light Snow
7:55 PM 26.6 °F 15.2 °F 23.0 °F 86% 29.95 in 2.2 mi NNE 13.8 mph - N/A Snow Light Snow
8:20 PM 26.6 °F 15.7 °F 23.0 °F 86% 29.95 in - NNE 12.7 mph - N/A Snow Light Snow
8:25 PM 26.6 °F 15.7 °F 23.0 °F 86% 29.95 in 2.8 mi NNE 12.7 mph - N/A   Mostly Cloudy
8:55 PM 26.6 °F 15.2 °F 23.0 °F 86% 29.95 in 3.1 mi NNE 13.8 mph - N/A   Mostly Cloudy
9:25 PM 26.6 °F 15.2 °F 23.0 °F 86% 29.95 in 3.1 mi NNE 13.8 mph - N/A   Mostly Cloudy
9:34 PM 26.6 °F 14.7 °F 24.8 °F 93% 29.95 in 3.1 mi NNE 15.0 mph - N/A Snow Light Snow
9:55 PM 26.6 °F 16.2 °F 23.0 °F 86% 29.95 in 3.1 mi NE 11.5 mph - N/A   Mostly Cloudy
10:00 PM 27 °F - 24 °F 82% 30.03 in 3 mi NNE 11.2 mph - - Snow Light Snow
10:25 PM 26.6 °F 16.2 °F 23.0 °F 86% 29.95 in 3.1 mi NNE 11.5 mph - N/A   Mostly Cloudy
10:55 PM 26.6 °F 16.2 °F 24.8 °F 93% 29.95 in 2.8 mi NNE 11.5 mph - N/A Snow Light Snow
11:11 PM 26.6 °F 16.8 °F 24.8 °F 93% 29.95 in - NNE 10.4 mph - N/A Snow Light Snow
11:25 PM 26.6 °F 16.2 °F 24.8 °F 93% 29.98 in 1.3 mi NNE 11.5 mph - N/A Snow Light Snow
11:55 PM 26.6 °F 16.2 °F 23.0 °F 86% 29.95 in 1.2 mi NNE 11.5 mph - N/A Snow Light Snow